Location: Winthrop
(48.4780°N, 120.1850°W)
Time: 18:12:42
(UTC-08:00)

Envisat - Visible Passes

Search period start: 26 November 2022 00:00
Search period end: 06 December 2022 00:00
Orbit: 763 x 765 km, 98.2° (Epoch: 26 November)

Date Brightness Start Highest point End Pass type
(mag) Time Alt. Az. Time Alt. Az. Time Alt. Az.
26 Nov 4.1 04:03:49 10° NNE 04:07:07 38° NE 04:07:07 38° NE visible
26 Nov 4.1 05:43:31 10° N 05:47:18 23° WNW 05:47:18 23° WNW visible
26 Nov 6.2 17:05:31 10° W 17:06:52 11° W 17:08:13 10° WNW visible
27 Nov 5.2 03:27:17 10° NE 03:29:28 21° NE 03:29:28 21° NE visible
27 Nov 3.6 05:05:59 10° N 05:09:39 38° NNW 05:09:39 38° NNW visible
28 Nov 6.0 02:51:42 10° ENE 02:51:50 10° ENE 02:51:50 10° ENE visible
28 Nov 3.9 04:28:48 10° NNE 04:32:00 39° NNE 04:32:00 39° NNE visible
28 Nov 4.5 06:09:18 10° NNW 06:12:10 16° NW 06:12:10 16° NW visible
29 Nov 4.8 03:51:58 10° NNE 03:54:22 26° NE 03:54:22 26° NE visible
29 Nov 4.0 05:31:21 10° N 05:34:32 26° NW 05:34:32 26° NW visible
29 Nov 5.9 16:52:05 10° WSW 16:54:45 14° W 16:57:24 10° NW visible
30 Nov 5.6 03:15:37 10° NE 03:16:45 15° NE 03:16:45 15° NE visible
30 Nov 3.9 04:53:57 10° N 04:56:54 34° N 04:56:54 34° N visible
01 Dec 4.5 04:16:52 10° NNE 04:19:17 29° NNE 04:19:17 29° NNE visible
01 Dec 4.4 05:56:57 10° NNW 05:59:28 18° NW 05:59:28 18° NW visible
02 Dec 5.3 03:40:08 10° NNE 03:41:41 18° NE 03:41:41 18° NE visible
02 Dec 4.2 05:19:13 10° N 05:21:51 26° NNW 05:21:51 26° NNW visible
02 Dec 5.8 16:39:14 10° SW 16:42:38 18° W 16:46:03 10° NW visible
03 Dec 6.0 03:04:03 10° NE 03:04:05 10° NE 03:04:05 10° NE visible
03 Dec 4.4 04:41:56 10° N 04:44:15 27° N 04:44:15 27° N visible
03 Dec 4.8 06:23:07 10° NNW 06:24:25 12° NW 06:24:25 12° NW visible
04 Dec 5.0 04:04:57 10° NNE 04:06:39 21° NNE 04:06:39 21° NNE visible
04 Dec 4.5 05:44:42 10° N 05:46:50 19° NNW 05:46:50 19° NNW visible
04 Dec 6.3 17:07:09 10° W 17:08:03 10° W 17:08:56 10° WNW visible
05 Dec 5.7 03:28:23 10° NE 03:29:04 13° NE 03:29:04 13° NE visible
05 Dec 4.4 05:07:08 10° N 05:09:15 23° N 05:09:15 23° N visible
